Time,TemperatureF,DewpointF,PressureIn,WindDirection,WindDirectionDegrees,WindSpeedMPH,WindSpeedGustMPH,Humidity,HourlyPrecipIn,Conditions,Clouds,dailyrainin,SoftwareType,DateUTC
2013-02-06 00:00:00,14.0,8.0,29.99,WNW,292,0.0,0.0,71,0.00,,,0.00,Rainwise IP-100,2013-02-06 05:00:00,
2013-02-06 00:05:00,14.0,8.0,29.99,WNW,292,0.0,0.0,71,0.00,,,0.00,Rainwise IP-100,2013-02-06 05:05:00,
2013-02-06 00:10:00,14.0,8.0,29.99,WNW,292,0.0,0.0,71,0.00,,,0.00,Rainwise IP-100,2013-02-06 05:10:00,
2013-02-06 00:15:00,14.0,8.0,29.99,WNW,292,0.0,0.0,69,0.00,,,0.00,Rainwise IP-100,2013-02-06 05:15:00,
2013-02-06 00:20:00,14.0,8.0,29.99,WNW,292,0.0,0.0,71,0.00,,,0.00,Rainwise IP-100,2013-02-06 05:20:00,
2013-02-06 00:25:00,14.0,8.0,29.99,WNW,292,0.0,0.0,71,0.00,,,0.00,Rainwise IP-100,2013-02-06 05:25:00,
2013-02-06 00:30:00,14.0,8.0,29.99,WNW,292,0.0,0.0,70,0.00,,,0.00,Rainwise IP-100,2013-02-06 05:30:00,
2013-02-06 00:35:00,14.0,4.0,29.99,WNW,292,0.0,0.0,67,0.00,,,0.00,Rainwise IP-100,2013-02-06 05:35:00,
2013-02-06 00:40:00,15.0,8.0,29.98,WNW,292,0.0,1.0,65,0.00,,,0.00,Rainwise IP-100,2013-02-06 05:40:00,
2013-02-06 00:45:00,14.0,4.0,29.98,WNW,292,0.0,1.0,66,0.00,,,0.00,Rainwise IP-100,2013-02-06 05:45:00,
2013-02-06 00:50:00,15.0,8.0,29.98,WNW,292,0.0,2.0,66,0.00,,,0.00,Rainwise IP-100,2013-02-06 05:50:00,
2013-02-06 00:55:00,14.0,4.0,29.98,WNW,292,0.0,1.0,67,0.00,,,0.00,Rainwise IP-100,2013-02-06 05:55:00,
2013-02-06 01:00:00,15.0,8.0,29.97,South,180,2.0,5.0,67,0.00,,,0.00,Rainwise IP-100,2013-02-06 06:00:00,
2013-02-06 01:02:00,15.0,8.0,29.97,South,180,3.0,5.0,66,0.00,,,0.00,Rainwise IP-100,2013-02-06 06:02:00,
2013-02-06 01:03:00,15.0,8.0,29.97,South,180,2.0,5.0,66,0.00,,,0.00,Rainwise IP-100,2013-02-06 06:03:00,
2013-02-06 01:08:00,15.0,8.0,29.97,West,270,4.0,4.0,69,0.00,,,0.00,Rainwise IP-100,2013-02-06 06:08:00,
2013-02-06 01:13:00,14.0,8.0,29.97,West,270,2.0,4.0,69,0.00,,,0.00,Rainwise IP-100,2013-02-06 06:13:00,
2013-02-06 01:18:00,14.0,4.0,29.97,West,270,3.0,5.0,68,0.00,,,0.00,Rainwise IP-100,2013-02-06 06:18:00,
2013-02-06 01:23:00,14.0,4.0,29.97,West,270,3.0,4.0,67,0.00,,,0.00,Rainwise IP-100,2013-02-06 06:23:00,
2013-02-06 01:28:00,14.0,4.0,29.97,West,270,1.0,4.0,68,0.00,,,0.00,Rainwise IP-100,2013-02-06 06:28:00,
2013-02-06 01:33:00,14.0,4.0,29.98,West,270,2.0,3.0,68,0.00,,,0.00,Rainwise IP-100,2013-02-06 06:33:00,
2013-02-06 01:34:00,14.0,4.0,29.98,West,270,2.0,3.0,68,0.00,,,0.00,Rainwise IP-100,2013-02-06 06:34:00,
2013-02-06 01:39:00,14.0,8.0,29.97,WSW,247,3.0,4.0,71,0.00,,,0.00,Rainwise IP-100,2013-02-06 06:39:00,
2013-02-06 01:44:00,14.0,8.0,29.97,SSW,202,2.0,5.0,70,0.00,,,0.00,Rainwise IP-100,2013-02-06 06:44:00,
2013-02-06 01:49:00,15.0,8.0,29.97,SW,225,3.0,4.0,71,0.00,,,0.00,Rainwise IP-100,2013-02-06 06:49:00,
2013-02-06 01:54:00,15.0,8.0,29.97,SW,225,1.0,4.0,72,0.00,,,0.00,Rainwise IP-100,2013-02-06 06:54:00,
2013-02-06 01:59:00,15.0,8.0,29.97,WNW,292,5.0,5.0,72,0.00,,,0.00,Rainwise IP-100,2013-02-06 06:59:00,
2013-02-06 02:04:00,14.0,8.0,29.97,WNW,292,1.0,6.0,73,0.00,,,0.00,Rainwise IP-100,2013-02-06 07:04:00,
2013-02-06 02:09:00,14.0,8.0,29.97,SSW,202,4.0,4.0,74,0.00,,,0.00,Rainwise IP-100,2013-02-06 07:09:00,
2013-02-06 02:14:00,14.0,8.0,29.97,South,180,2.0,5.0,74,0.00,,,0.00,Rainwise IP-100,2013-02-06 07:14:00,
2013-02-06 02:19:00,15.0,11.0,29.96,South,180,0.0,4.0,77,0.00,,,0.00,Rainwise IP-100,2013-02-06 07:19:00,
2013-02-06 02:24:00,14.0,8.0,29.96,NNW,337,1.0,6.0,77,0.00,,,0.00,Rainwise IP-100,2013-02-06 07:24:00,
2013-02-06 02:29:00,14.0,8.0,29.97,NE,45,3.0,4.0,78,0.00,,,0.00,Rainwise IP-100,2013-02-06 07:29:00,
2013-02-06 02:34:00,14.0,8.0,29.97,ENE,67,1.0,4.0,76,0.00,,,0.00,Rainwise IP-100,2013-02-06 07:34:00,
2013-02-06 02:39:00,15.0,11.0,29.96,NW,315,1.0,6.0,77,0.00,,,0.00,Rainwise IP-100,2013-02-06 07:39:00,
2013-02-06 02:44:00,16.0,11.0,29.96,SSW,202,6.0,7.0,77,0.00,,,0.00,Rainwise IP-100,2013-02-06 07:44:00,
2013-02-06 02:49:00,17.0,14.0,29.96,SSE,157,8.0,9.0,78,0.00,,,0.00,Rainwise IP-100,2013-02-06 07:49:00,
2013-02-06 02:54:00,19.0,16.0,29.94,SW,225,8.0,12.0,78,0.00,,,0.00,Rainwise IP-100,2013-02-06 07:54:00,
2013-02-06 02:59:00,19.0,16.0,29.94,SW,225,7.0,9.0,78,0.00,,,0.00,Rainwise IP-100,2013-02-06 07:59:00,
2013-02-06 03:04:00,19.0,16.0,29.94,SW,225,7.0,10.0,78,0.00,,,0.00,Rainwise IP-100,2013-02-06 08:04:00,
2013-02-06 03:09:00,19.0,16.0,29.94,South,180,7.0,10.0,79,0.00,,,0.00,Rainwise IP-100,2013-02-06 08:09:00,
2013-02-06 03:14:00,20.0,16.0,29.94,SSW,202,7.0,12.0,79,0.00,,,0.00,Rainwise IP-100,2013-02-06 08:14:00,
2013-02-06 03:19:00,20.0,16.0,29.94,South,180,7.0,13.0,80,0.00,,,0.00,Rainwise IP-100,2013-02-06 08:19:00,
2013-02-06 03:24:00,21.0,16.0,29.94,South,180,7.0,10.0,79,0.00,,,0.00,Rainwise IP-100,2013-02-06 08:24:00,
2013-02-06 03:29:00,21.0,16.0,29.94,South,180,7.0,10.0,79,0.00,,,0.00,Rainwise IP-100,2013-02-06 08:29:00,
2013-02-06 03:34:00,21.0,16.0,29.94,SSE,157,7.0,10.0,81,0.00,,,0.00,Rainwise IP-100,2013-02-06 08:34:00,
2013-02-06 03:39:00,21.0,16.0,29.94,SSW,202,9.0,13.0,82,0.00,,,0.00,Rainwise IP-100,2013-02-06 08:39:00,
2013-02-06 03:44:00,21.0,16.0,29.94,SSW,202,8.0,15.0,81,0.00,,,0.00,Rainwise IP-100,2013-02-06 08:44:00,
2013-02-06 03:49:00,21.0,16.0,29.94,SSW,202,8.0,13.0,82,0.00,,,0.00,Rainwise IP-100,2013-02-06 08:49:00,
2013-02-06 03:54:00,21.0,16.0,29.94,SW,225,10.0,10.0,82,0.00,,,0.00,Rainwise IP-100,2013-02-06 08:54:00,
2013-02-06 03:59:00,21.0,16.0,29.94,SW,225,7.0,10.0,81,0.00,,,0.00,Rainwise IP-100,2013-02-06 08:59:00,
2013-02-06 04:04:00,20.0,16.0,29.94,SSW,202,7.0,11.0,83,0.00,,,0.00,Rainwise IP-100,2013-02-06 09:04:00,
2013-02-06 04:09:00,21.0,16.0,29.95,SW,225,8.0,11.0,85,0.00,,,0.00,Rainwise IP-100,2013-02-06 09:09:00,
2013-02-06 04:14:00,21.0,16.0,29.95,SW,225,7.0,10.0,85,0.00,,,0.00,Rainwise IP-100,2013-02-06 09:14:00,
2013-02-06 04:19:00,21.0,16.0,29.95,WSW,247,6.0,12.0,86,0.00,,,0.00,Rainwise IP-100,2013-02-06 09:19:00,
2013-02-06 04:24:00,21.0,16.0,29.95,SW,225,7.0,9.0,86,0.00,,,0.00,Rainwise IP-100,2013-02-06 09:24:00,
2013-02-06 04:29:00,21.0,16.0,29.95,SW,225,9.0,11.0,86,0.00,,,0.00,Rainwise IP-100,2013-02-06 09:29:00,
2013-02-06 04:34:00,21.0,16.0,29.95,SW,225,9.0,14.0,86,0.00,,,0.00,Rainwise IP-100,2013-02-06 09:34:00,
2013-02-06 04:39:00,21.0,16.0,29.95,SW,225,12.0,16.0,84,0.00,,,0.00,Rainwise IP-100,2013-02-06 09:39:00,
2013-02-06 04:44:00,21.0,16.0,29.95,SW,225,10.0,14.0,83,0.00,,,0.00,Rainwise IP-100,2013-02-06 09:44:00,
2013-02-06 04:49:00,21.0,16.0,29.95,SW,225,9.0,13.0,84,0.00,,,0.00,Rainwise IP-100,2013-02-06 09:49:00,
2013-02-06 04:55:00,22.0,18.0,29.95,WSW,247,9.0,16.0,82,0.00,,,0.00,Rainwise IP-100,2013-02-06 09:55:00,
2013-02-06 05:00:00,22.0,18.0,29.95,SSW,202,10.0,15.0,81,0.00,,,0.00,Rainwise IP-100,2013-02-06 10:00:00,
2013-02-06 05:05:00,22.0,18.0,29.95,SW,225,7.0,16.0,81,0.00,,,0.00,Rainwise IP-100,2013-02-06 10:05:00,
2013-02-06 05:10:00,22.0,16.0,29.96,SW,225,11.0,16.0,79,0.00,,,0.00,Rainwise IP-100,2013-02-06 10:10:00,
2013-02-06 05:15:00,22.0,18.0,29.96,WSW,247,8.0,13.0,81,0.00,,,0.00,Rainwise IP-100,2013-02-06 10:15:00,
2013-02-06 05:20:00,22.0,16.0,29.96,West,270,11.0,15.0,79,0.00,,,0.00,Rainwise IP-100,2013-02-06 10:20:00,
2013-02-06 05:25:00,22.0,16.0,29.96,WSW,247,13.0,13.0,79,0.00,,,0.00,Rainwise IP-100,2013-02-06 10:25:00,
2013-02-06 05:30:00,22.0,16.0,29.96,SW,225,9.0,16.0,79,0.00,,,0.00,Rainwise IP-100,2013-02-06 10:30:00,
2013-02-06 05:35:00,22.0,16.0,29.96,SW,225,13.0,20.0,78,0.00,,,0.00,Rainwise IP-100,2013-02-06 10:35:00,
2013-02-06 05:40:00,22.0,16.0,29.96,SSW,202,12.0,17.0,78,0.00,,,0.00,Rainwise IP-100,2013-02-06 10:40:00,
2013-02-06 05:45:00,22.0,16.0,29.96,SW,225,12.0,16.0,78,0.00,,,0.00,Rainwise IP-100,2013-02-06 10:45:00,
2013-02-06 05:50:00,22.0,16.0,29.96,SSW,202,8.0,19.0,78,0.00,,,0.00,Rainwise IP-100,2013-02-06 10:50:00,
2013-02-06 05:55:00,22.0,16.0,29.96,SW,225,9.0,15.0,79,0.00,,,0.00,Rainwise IP-100,2013-02-06 10:55:00,
2013-02-06 06:00:00,22.0,16.0,29.96,WSW,247,9.0,18.0,78,0.00,,,0.00,Rainwise IP-100,2013-02-06 11:00:00,
2013-02-06 06:05:00,22.0,16.0,29.96,SW,225,6.0,12.0,78,0.00,,,0.00,Rainwise IP-100,2013-02-06 11:05:00,
2013-02-06 06:10:00,22.0,16.0,29.96,SW,225,11.0,12.0,76,0.00,,,0.00,Rainwise IP-100,2013-02-06 11:10:00,
2013-02-06 06:15:00,22.0,16.0,29.96,SW,225,9.0,15.0,76,0.00,,,0.00,Rainwise IP-100,2013-02-06 11:15:00,
2013-02-06 06:20:00,22.0,16.0,29.96,SW,225,8.0,15.0,78,0.00,,,0.00,Rainwise IP-100,2013-02-06 11:20:00,
2013-02-06 06:25:00,22.0,16.0,29.96,SSW,202,10.0,13.0,76,0.00,,,0.00,Rainwise IP-100,2013-02-06 11:25:00,
2013-02-06 06:30:00,22.0,16.0,29.96,SW,225,6.0,13.0,76,0.00,,,0.00,Rainwise IP-100,2013-02-06 11:30:00,
2013-02-06 06:35:00,22.0,16.0,29.96,SW,225,13.0,13.0,76,0.00,,,0.00,Rainwise IP-100,2013-02-06 11:35:00,
2013-02-06 06:40:00,22.0,16.0,29.97,SSE,157,4.0,17.0,76,0.00,,,0.00,Rainwise IP-100,2013-02-06 11:40:00,
2013-02-06 06:45:00,22.0,16.0,29.97,South,180,7.0,13.0,76,0.00,,,0.00,Rainwise IP-100,2013-02-06 11:45:00,
2013-02-06 06:50:00,22.0,16.0,29.98,WSW,247,9.0,12.0,76,0.00,,,0.00,Rainwise IP-100,2013-02-06 11:50:00,
2013-02-06 06:55:00,22.0,16.0,29.98,SSW,202,10.0,12.0,77,0.00,,,0.00,Rainwise IP-100,2013-02-06 11:55:00,
2013-02-06 07:00:00,22.0,16.0,29.98,SW,225,9.0,12.0,77,0.00,,,0.00,Rainwise IP-100,2013-02-06 12:00:00,
2013-02-06 07:05:00,22.0,16.0,29.98,SSW,202,9.0,12.0,76,0.00,,,0.00,Rainwise IP-100,2013-02-06 12:05:00,
2013-02-06 07:10:00,22.0,16.0,29.98,SW,225,9.0,12.0,76,0.00,,,0.00,Rainwise IP-100,2013-02-06 12:10:00,
2013-02-06 07:15:00,22.0,16.0,29.98,SSW,202,11.0,13.0,76,0.00,,,0.00,Rainwise IP-100,2013-02-06 12:15:00,
2013-02-06 07:20:00,22.0,16.0,29.99,South,180,14.0,21.0,76,0.00,,,0.00,Rainwise IP-100,2013-02-06 12:20:00,
2013-02-06 07:25:00,22.0,16.0,29.99,SSW,202,15.0,19.0,75,0.00,,,0.00,Rainwise IP-100,2013-02-06 12:25:00,
2013-02-06 07:30:00,22.0,16.0,29.98,SW,225,12.0,18.0,76,0.00,,,0.00,Rainwise IP-100,2013-02-06 12:30:00,
2013-02-06 07:35:00,22.0,16.0,29.98,SSW,202,9.0,16.0,76,0.00,,,0.00,Rainwise IP-100,2013-02-06 12:35:00,
2013-02-06 07:40:00,22.0,16.0,29.98,WSW,247,8.0,16.0,77,0.00,,,0.00,Rainwise IP-100,2013-02-06 12:40:00,
2013-02-06 07:45:00,23.0,16.0,29.98,South,180,6.0,19.0,75,0.00,,,0.00,Rainwise IP-100,2013-02-06 12:45:00,
2013-02-06 07:50:00,23.0,16.0,29.98,SW,225,13.0,20.0,75,0.00,,,0.00,Rainwise IP-100,2013-02-06 12:50:00,
2013-02-06 07:55:00,23.0,16.0,29.98,SW,225,10.0,17.0,76,0.00,,,0.00,Rainwise IP-100,2013-02-06 12:55:00,
2013-02-06 08:00:00,23.0,16.0,29.99,SSE,157,8.0,21.0,76,0.00,,,0.00,Rainwise IP-100,2013-02-06 13:00:00,
2013-02-06 08:05:00,23.0,16.0,29.99,SSW,202,7.0,13.0,77,0.00,,,0.00,Rainwise IP-100,2013-02-06 13:05:00,
2013-02-06 08:10:00,23.0,16.0,29.99,SW,225,10.0,17.0,78,0.00,,,0.00,Rainwise IP-100,2013-02-06 13:10:00,
2013-02-06 08:15:00,23.0,16.0,29.99,SW,225,12.0,16.0,79,0.00,,,0.00,Rainwise IP-100,2013-02-06 13:15:00,
2013-02-06 08:20:00,22.0,18.0,30.01,South,180,7.0,13.0,80,0.00,,,0.00,Rainwise IP-100,2013-02-06 13:20:00,
2013-02-06 08:25:00,22.0,18.0,30.01,South,180,7.0,11.0,81,0.00,,,0.00,Rainwise IP-100,2013-02-06 13:25:00,
2013-02-06 08:30:00,22.0,18.0,30.00,South,180,9.0,16.0,81,0.00,,,0.00,Rainwise IP-100,2013-02-06 13:30:00,
2013-02-06 08:35:00,22.0,18.0,30.00,SSW,202,8.0,16.0,83,0.00,,,0.00,Rainwise IP-100,2013-02-06 13:35:00,
2013-02-06 08:40:00,22.0,18.0,30.00,South,180,9.0,15.0,82,0.00,,,0.00,Rainwise IP-100,2013-02-06 13:40:00,
2013-02-06 08:45:00,22.0,18.0,30.00,SW,225,7.0,13.0,82,0.00,,,0.00,Rainwise IP-100,2013-02-06 13:45:00,
2013-02-06 08:50:00,22.0,18.0,30.01,South,180,7.0,14.0,83,0.00,,,0.00,Rainwise IP-100,2013-02-06 13:50:00,
2013-02-06 08:55:00,22.0,18.0,30.01,SSW,202,16.0,16.0,83,0.00,,,0.00,Rainwise IP-100,2013-02-06 13:55:00,
2013-02-06 09:00:00,22.0,18.0,30.01,SW,225,10.0,17.0,84,0.00,,,0.00,Rainwise IP-100,2013-02-06 14:00:00,
2013-02-06 09:05:00,22.0,18.0,30.01,SSW,202,9.0,13.0,87,0.00,,,0.00,Rainwise IP-100,2013-02-06 14:05:00,
2013-02-06 09:10:00,22.0,18.0,30.01,SW,225,7.0,13.0,87,0.00,,,0.00,Rainwise IP-100,2013-02-06 14:10:00,
2013-02-06 09:15:00,22.0,21.0,30.01,SW,225,6.0,13.0,88,0.00,,,0.00,Rainwise IP-100,2013-02-06 14:15:00,
2013-02-06 09:20:00,22.0,21.0,30.01,SW,225,14.0,15.0,88,0.00,,,0.00,Rainwise IP-100,2013-02-06 14:20:00,
2013-02-06 09:25:00,22.0,21.0,30.01,SW,225,10.0,16.0,88,0.00,,,0.00,Rainwise IP-100,2013-02-06 14:25:00,
2013-02-06 09:30:00,22.0,18.0,30.01,SSW,202,11.0,16.0,87,0.00,,,0.00,Rainwise IP-100,2013-02-06 14:30:00,
2013-02-06 09:35:00,22.0,18.0,30.01,SSW,202,10.0,15.0,87,0.00,,,0.00,Rainwise IP-100,2013-02-06 14:35:00,
2013-02-06 09:40:00,23.0,18.0,30.01,SW,225,9.0,17.0,87,0.00,,,0.00,Rainwise IP-100,2013-02-06 14:40:00,
2013-02-06 09:45:00,22.0,18.0,30.01,SW,225,9.0,17.0,86,0.00,,,0.00,Rainwise IP-100,2013-02-06 14:45:00,
2013-02-06 09:50:00,23.0,18.0,30.01,SSW,202,11.0,13.0,86,0.00,,,0.00,Rainwise IP-100,2013-02-06 14:50:00,
2013-02-06 09:55:00,23.0,18.0,30.01,SW,225,12.0,18.0,85,0.00,,,0.00,Rainwise IP-100,2013-02-06 14:55:00,
2013-02-06 10:00:00,23.0,18.0,30.01,SW,225,9.0,15.0,85,0.00,,,0.00,Rainwise IP-100,2013-02-06 15:00:00,
2013-02-06 10:05:00,23.0,18.0,30.01,WSW,247,9.0,13.0,85,0.00,,,0.00,Rainwise IP-100,2013-02-06 15:05:00,
2013-02-06 10:10:00,23.0,18.0,30.01,South,180,13.0,17.0,84,0.00,,,0.00,Rainwise IP-100,2013-02-06 15:10:00,
2013-02-06 10:15:00,23.0,18.0,30.01,SW,225,11.0,22.0,84,0.00,,,0.00,Rainwise IP-100,2013-02-06 15:15:00,
2013-02-06 10:20:00,23.0,18.0,30.01,SSW,202,15.0,22.0,84,0.00,,,0.00,Rainwise IP-100,2013-02-06 15:20:00,
2013-02-06 10:25:00,23.0,18.0,30.01,SSW,202,12.0,22.0,84,0.00,,,0.00,Rainwise IP-100,2013-02-06 15:25:00,
2013-02-06 10:30:00,23.0,18.0,30.02,SW,225,13.0,18.0,83,0.00,,,0.00,Rainwise IP-100,2013-02-06 15:30:00,
2013-02-06 10:35:00,23.0,18.0,30.02,SW,225,7.0,17.0,83,0.00,,,0.00,Rainwise IP-100,2013-02-06 15:35:00,
2013-02-06 10:40:00,23.0,18.0,30.03,SW,225,9.0,15.0,83,0.00,,,0.00,Rainwise IP-100,2013-02-06 15:40:00,
2013-02-06 10:45:00,23.0,18.0,30.03,SW,225,9.0,15.0,83,0.00,,,0.00,Rainwise IP-100,2013-02-06 15:45:00,
2013-02-06 10:50:00,24.0,21.0,30.02,SW,225,11.0,14.0,84,0.00,,,0.00,Rainwise IP-100,2013-02-06 15:50:00,
2013-02-06 10:55:00,24.0,21.0,30.02,SW,225,9.0,16.0,84,0.00,,,0.00,Rainwise IP-100,2013-02-06 15:55:00,
2013-02-06 11:00:00,24.0,21.0,30.03,West,270,6.0,11.0,84,0.00,,,0.00,Rainwise IP-100,2013-02-06 16:00:00,
2013-02-06 11:05:00,24.0,21.0,30.03,WSW,247,7.0,7.0,82,0.00,,,0.00,Rainwise IP-100,2013-02-06 16:05:00,
2013-02-06 11:10:00,25.0,21.0,30.02,West,270,12.0,15.0,75,0.00,,,0.00,Rainwise IP-100,2013-02-06 16:10:00,
2013-02-06 11:15:00,25.0,18.0,30.02,West,270,16.0,25.0,70,0.00,,,0.00,Rainwise IP-100,2013-02-06 16:15:00,
2013-02-06 11:20:00,25.0,18.0,30.02,WSW,247,9.0,19.0,72,0.00,,,0.00,Rainwise IP-100,2013-02-06 16:20:00,
2013-02-06 11:25:00,25.0,16.0,30.02,NNW,337,13.0,13.0,67,0.00,,,0.00,Rainwise IP-100,2013-02-06 16:25:00,
2013-02-06 11:30:00,25.0,18.0,30.03,NW,315,10.0,20.0,69,0.00,,,0.00,Rainwise IP-100,2013-02-06 16:30:00,
2013-02-06 11:35:00,25.0,16.0,30.03,NW,315,13.0,18.0,64,0.00,,,0.00,Rainwise IP-100,2013-02-06 16:35:00,
2013-02-06 11:40:00,25.0,16.0,30.02,SSW,202,4.0,23.0,63,0.00,,,0.00,Rainwise IP-100,2013-02-06 16:40:00,
2013-02-06 11:45:00,25.0,18.0,30.02,SW,225,14.0,16.0,68,0.00,,,0.00,Rainwise IP-100,2013-02-06 16:45:00,
2013-02-06 11:50:00,25.0,16.0,30.02,West,270,18.0,19.0,63,0.00,,,0.00,Rainwise IP-100,2013-02-06 16:50:00,
2013-02-06 11:55:00,25.0,16.0,30.02,NNW,337,2.0,19.0,63,0.00,,,0.00,Rainwise IP-100,2013-02-06 16:55:00,
2013-02-06 12:00:00,25.0,16.0,30.02,NW,315,8.0,12.0,66,0.00,,,0.00,Rainwise IP-100,2013-02-06 17:00:00,
2013-02-06 12:05:00,26.0,16.0,30.02,WSW,247,9.0,15.0,63,0.00,,,0.00,Rainwise IP-100,2013-02-06 17:05:00,
2013-02-06 12:10:00,26.0,16.0,30.02,NW,315,16.0,19.0,67,0.00,,,0.00,Rainwise IP-100,2013-02-06 17:10:00,
2013-02-06 12:15:00,24.0,21.0,30.02,NNE,22,11.0,22.0,85,0.00,,,0.00,Rainwise IP-100,2013-02-06 17:15:00,
2013-02-06 12:20:00,23.0,21.0,30.02,North,360,14.0,18.0,93,0.00,,,0.00,Rainwise IP-100,2013-02-06 17:20:00,
2013-02-06 12:25:00,23.0,21.0,30.05,NNW,337,9.0,17.0,93,0.00,,,0.00,Rainwise IP-100,2013-02-06 17:25:00,
2013-02-06 12:30:00,23.0,18.0,30.05,North,360,10.0,19.0,85,0.00,,,0.00,Rainwise IP-100,2013-02-06 17:30:00,
2013-02-06 12:35:00,23.0,16.0,30.05,NW,315,10.0,15.0,79,0.00,,,0.00,Rainwise IP-100,2013-02-06 17:35:00,
2013-02-06 12:40:00,24.0,18.0,30.06,NW,315,7.0,16.0,79,0.00,,,0.00,Rainwise IP-100,2013-02-06 17:40:00,
2013-02-06 12:45:00,24.0,18.0,30.06,NW,315,10.0,16.0,76,0.00,,,0.00,Rainwise IP-100,2013-02-06 17:45:00,
2013-02-06 12:50:00,25.0,18.0,30.06,North,360,9.0,15.0,72,0.00,,,0.00,Rainwise IP-100,2013-02-06 17:50:00,
2013-02-06 12:55:00,25.0,18.0,30.06,NW,315,9.0,13.0,68,0.00,,,0.00,Rainwise IP-100,2013-02-06 17:55:00,
2013-02-06 13:00:00,25.0,16.0,30.06,NW,315,15.0,17.0,67,0.00,,,0.00,Rainwise IP-100,2013-02-06 18:00:00,
2013-02-06 13:05:00,26.0,18.0,30.06,North,360,13.0,17.0,72,0.00,,,0.00,Rainwise IP-100,2013-02-06 18:05:00,
2013-02-06 13:10:00,24.0,18.0,30.07,NNW,337,7.0,19.0,79,0.00,,,0.00,Rainwise IP-100,2013-02-06 18:10:00,
2013-02-06 13:15:00,23.0,18.0,30.07,NW,315,9.0,17.0,86,0.00,,,0.00,Rainwise IP-100,2013-02-06 18:15:00,
2013-02-06 13:20:00,23.0,21.0,30.08,North,360,9.0,15.0,89,0.00,,,0.00,Rainwise IP-100,2013-02-06 18:20:00,
2013-02-06 13:25:00,22.0,21.0,30.08,North,360,10.0,14.0,91,0.00,,,0.00,Rainwise IP-100,2013-02-06 18:25:00,
2013-02-06 13:30:00,22.0,18.0,30.09,North,360,13.0,23.0,87,0.00,,,0.00,Rainwise IP-100,2013-02-06 18:30:00,
2013-02-06 13:35:00,22.0,18.0,30.09,NNW,337,10.0,16.0,86,0.00,,,0.00,Rainwise IP-100,2013-02-06 18:35:00,
2013-02-06 13:40:00,23.0,18.0,30.09,NNW,337,7.0,15.0,81,0.00,,,0.00,Rainwise IP-100,2013-02-06 18:40:00,
2013-02-06 13:45:00,23.0,18.0,30.09,NW,315,9.0,14.0,80,0.00,,,0.00,Rainwise IP-100,2013-02-06 18:45:00,
2013-02-06 13:50:00,23.0,18.0,30.09,North,360,11.0,17.0,82,0.00,,,0.00,Rainwise IP-100,2013-02-06 18:50:00,
2013-02-06 13:55:00,22.0,18.0,30.09,North,360,13.0,17.0,87,0.00,,,0.00,Rainwise IP-100,2013-02-06 18:55:00,
2013-02-06 14:00:00,22.0,18.0,30.11,NNW,337,8.0,15.0,86,0.00,,,0.00,Rainwise IP-100,2013-02-06 19:00:00,
2013-02-06 14:05:00,21.0,16.0,30.11,NW,315,9.0,14.0,83,0.00,,,0.00,Rainwise IP-100,2013-02-06 19:05:00,
2013-02-06 14:10:00,21.0,16.0,30.11,North,360,4.0,12.0,83,0.00,,,0.00,Rainwise IP-100,2013-02-06 19:10:00,
2013-02-06 14:15:00,21.0,16.0,30.11,NNE,22,6.0,10.0,84,0.00,,,0.00,Rainwise IP-100,2013-02-06 19:15:00,
2013-02-06 14:20:00,22.0,18.0,30.11,WSW,247,0.0,10.0,83,0.00,,,0.00,Rainwise IP-100,2013-02-06 19:20:00,
2013-02-06 14:25:00,21.0,16.0,30.11,NW,315,9.0,14.0,78,0.00,,,0.00,Rainwise IP-100,2013-02-06 19:25:00,
2013-02-06 14:30:00,22.0,16.0,30.12,NNW,337,10.0,17.0,77,0.00,,,0.00,Rainwise IP-100,2013-02-06 19:30:00,
2013-02-06 14:35:00,22.0,16.0,30.12,North,360,5.0,13.0,78,0.00,,,0.00,Rainwise IP-100,2013-02-06 19:35:00,
2013-02-06 14:40:00,22.0,16.0,30.13,NNE,22,3.0,9.0,78,0.00,,,0.00,Rainwise IP-100,2013-02-06 19:40:00,
2013-02-06 14:45:00,22.0,16.0,30.13,NW,315,15.0,15.0,76,0.00,,,0.00,Rainwise IP-100,2013-02-06 19:45:00,
2013-02-06 14:50:00,22.0,16.0,30.13,NE,45,10.0,15.0,76,0.00,,,0.00,Rainwise IP-100,2013-02-06 19:50:00,
2013-02-06 14:55:00,23.0,16.0,30.13,North,360,10.0,17.0,73,0.00,,,0.00,Rainwise IP-100,2013-02-06 19:55:00,
2013-02-06 15:00:00,22.0,16.0,30.13,NW,315,15.0,19.0,73,0.00,,,0.00,Rainwise IP-100,2013-02-06 20:00:00,
2013-02-06 15:05:00,21.0,14.0,30.13,NNW,337,12.0,22.0,72,0.00,,,0.00,Rainwise IP-100,2013-02-06 20:05:00,
2013-02-06 15:10:00,22.0,16.0,30.13,North,360,7.0,18.0,72,0.00,,,0.00,Rainwise IP-100,2013-02-06 20:10:00,
2013-02-06 15:15:00,22.0,14.0,30.13,North,360,9.0,11.0,70,0.00,,,0.00,Rainwise IP-100,2013-02-06 20:15:00,
2013-02-06 15:20:00,22.0,14.0,30.14,North,360,7.0,20.0,69,0.00,,,0.00,Rainwise IP-100,2013-02-06 20:20:00,
2013-02-06 15:25:00,22.0,14.0,30.14,NNE,22,5.0,14.0,67,0.00,,,0.00,Rainwise IP-100,2013-02-06 20:25:00,
2013-02-06 15:30:00,22.0,14.0,30.15,NNW,337,8.0,15.0,65,0.00,,,0.00,Rainwise IP-100,2013-02-06 20:30:00,
2013-02-06 15:35:00,22.0,14.0,30.15,NNE,22,5.0,14.0,64,0.00,,,0.00,Rainwise IP-100,2013-02-06 20:35:00,
2013-02-06 15:40:00,22.0,14.0,30.16,North,360,13.0,14.0,63,0.00,,,0.00,Rainwise IP-100,2013-02-06 20:40:00,
2013-02-06 15:45:00,22.0,14.0,30.16,NW,315,9.0,15.0,63,0.00,,,0.00,Rainwise IP-100,2013-02-06 20:45:00,
2013-02-06 15:50:00,22.0,14.0,30.17,NNW,337,7.0,9.0,63,0.00,,,0.00,Rainwise IP-100,2013-02-06 20:50:00,
2013-02-06 15:55:00,21.0,11.0,30.17,North,360,8.0,16.0,63,0.00,,,0.00,Rainwise IP-100,2013-02-06 20:55:00,
2013-02-06 16:00:00,21.0,11.0,30.17,North,360,8.0,16.0,63,0.00,,,0.00,Rainwise IP-100,2013-02-06 21:00:00,
2013-02-06 16:05:00,20.0,11.0,30.17,NW,315,12.0,15.0,63,0.00,,,0.00,Rainwise IP-100,2013-02-06 21:05:00,
2013-02-06 16:10:00,20.0,11.0,30.18,North,360,5.0,15.0,63,0.00,,,0.00,Rainwise IP-100,2013-02-06 21:10:00,
2013-02-06 16:15:00,20.0,11.0,30.18,North,360,7.0,15.0,64,0.00,,,0.00,Rainwise IP-100,2013-02-06 21:15:00,
2013-02-06 16:20:00,19.0,11.0,30.19,NNW,337,7.0,17.0,64,0.00,,,0.00,Rainwise IP-100,2013-02-06 21:20:00,
2013-02-06 16:25:00,19.0,11.0,30.19,NNW,337,7.0,13.0,64,0.00,,,0.00,Rainwise IP-100,2013-02-06 21:25:00,
2013-02-06 16:30:00,18.0,8.0,30.19,NNW,337,11.0,19.0,63,0.00,,,0.00,Rainwise IP-100,2013-02-06 21:30:00,
2013-02-06 16:35:00,18.0,8.0,30.19,North,360,7.0,16.0,63,0.00,,,0.00,Rainwise IP-100,2013-02-06 21:35:00,
2013-02-06 16:40:00,18.0,8.0,30.20,North,360,8.0,20.0,63,0.00,,,0.00,Rainwise IP-100,2013-02-06 21:40:00,
2013-02-06 16:45:00,18.0,8.0,30.20,North,360,12.0,15.0,64,0.00,,,0.00,Rainwise IP-100,2013-02-06 21:45:00,
2013-02-06 16:50:00,18.0,8.0,30.20,NNW,337,6.0,15.0,62,0.00,,,0.00,Rainwise IP-100,2013-02-06 21:50:00,
2013-02-06 16:55:00,17.0,8.0,30.20,ENE,67,7.0,10.0,63,0.00,,,0.00,Rainwise IP-100,2013-02-06 21:55:00,
2013-02-06 17:00:00,17.0,8.0,30.22,NNE,22,0.0,9.0,63,0.00,,,0.00,Rainwise IP-100,2013-02-06 22:00:00,
2013-02-06 17:05:00,17.0,8.0,30.22,ENE,67,5.0,7.0,64,0.00,,,0.00,Rainwise IP-100,2013-02-06 22:05:00,
2013-02-06 17:10:00,17.0,8.0,30.23,ENE,67,6.0,7.0,63,0.00,,,0.00,Rainwise IP-100,2013-02-06 22:10:00,
2013-02-06 17:15:00,16.0,8.0,30.23,ENE,67,7.0,7.0,63,0.00,,,0.00,Rainwise IP-100,2013-02-06 22:15:00,
2013-02-06 17:20:00,16.0,4.0,30.24,NNE,22,5.0,15.0,60,0.00,,,0.00,Rainwise IP-100,2013-02-06 22:20:00,
2013-02-06 17:25:00,16.0,4.0,30.24,ENE,67,6.0,8.0,61,0.00,,,0.00,Rainwise IP-100,2013-02-06 22:25:00,
2013-02-06 17:30:00,16.0,4.0,30.24,NNE,22,9.0,9.0,60,0.00,,,0.00,Rainwise IP-100,2013-02-06 22:30:00,
2013-02-06 17:35:00,16.0,4.0,30.25,NE,45,5.0,13.0,57,0.00,,,0.00,Rainwise IP-100,2013-02-06 22:35:00,
2013-02-06 17:40:00,15.0,4.0,30.26,ENE,67,7.0,9.0,58,0.00,,,0.00,Rainwise IP-100,2013-02-06 22:40:00,
2013-02-06 17:45:00,15.0,4.0,30.26,NE,45,9.0,11.0,55,0.00,,,0.00,Rainwise IP-100,2013-02-06 22:45:00,
2013-02-06 17:50:00,15.0,4.0,30.26,East,90,7.0,10.0,54,0.00,,,0.00,Rainwise IP-100,2013-02-06 22:50:00,
2013-02-06 17:55:00,15.0,4.0,30.26,ENE,67,7.0,11.0,55,0.00,,,0.00,Rainwise IP-100,2013-02-06 22:55:00,
2013-02-06 18:00:00,15.0,4.0,30.27,NE,45,6.0,13.0,52,0.00,,,0.00,Rainwise IP-100,2013-02-06 23:00:00,
2013-02-06 18:05:00,14.0,0.0,30.27,North,360,9.0,12.0,53,0.00,,,0.00,Rainwise IP-100,2013-02-06 23:05:00,
2013-02-06 18:10:00,14.0,0.0,30.29,North,360,6.0,11.0,50,0.00,,,0.00,Rainwise IP-100,2013-02-06 23:10:00,
2013-02-06 18:15:00,14.0,0.0,30.29,ENE,67,8.0,10.0,53,0.00,,,0.00,Rainwise IP-100,2013-02-06 23:15:00,
2013-02-06 18:20:00,14.0,0.0,30.29,NE,45,6.0,11.0,50,0.00,,,0.00,Rainwise IP-100,2013-02-06 23:20:00,
2013-02-06 18:25:00,14.0,0.0,30.29,NE,45,4.0,9.0,50,0.00,,,0.00,Rainwise IP-100,2013-02-06 23:25:00,
2013-02-06 18:30:00,14.0,0.0,30.30,North,360,6.0,9.0,49,0.00,,,0.00,Rainwise IP-100,2013-02-06 23:30:00,
2013-02-06 18:35:00,13.0,0.0,30.30,NNE,22,7.0,9.0,49,0.00,,,0.00,Rainwise IP-100,2013-02-06 23:35:00,
2013-02-06 18:40:00,13.0,0.0,30.31,NNE,22,6.0,8.0,51,0.00,,,0.00,Rainwise IP-100,2013-02-06 23:40:00,
2013-02-06 18:45:00,13.0,0.0,30.31,NNE,22,4.0,10.0,50,0.00,,,0.00,Rainwise IP-100,2013-02-06 23:45:00,
2013-02-06 18:50:00,13.0,0.0,30.31,North,360,6.0,10.0,47,0.00,,,0.00,Rainwise IP-100,2013-02-06 23:50:00,
2013-02-06 18:55:00,13.0,0.0,30.31,NNE,22,6.0,14.0,47,0.00,,,0.00,Rainwise IP-100,2013-02-06 23:55:00,
2013-02-06 19:00:00,13.0,0.0,30.32,NNW,337,5.0,10.0,48,0.00,,,0.00,Rainwise IP-100,2013-02-07 00:00:00,
2013-02-06 19:05:00,12.0,0.0,30.32,North,360,8.0,12.0,47,0.00,,,0.00,Rainwise IP-100,2013-02-07 00:05:00,
2013-02-06 19:10:00,13.0,0.0,30.32,East,90,3.0,14.0,47,0.00,,,0.00,Rainwise IP-100,2013-02-07 00:10:00,
2013-02-06 19:15:00,12.0,0.0,30.32,NE,45,7.0,12.0,47,0.00,,,0.00,Rainwise IP-100,2013-02-07 00:15:00,
2013-02-06 19:20:00,12.0,0.0,30.33,NNE,22,4.0,13.0,47,0.00,,,0.00,Rainwise IP-100,2013-02-07 00:20:00,
2013-02-06 19:25:00,12.0,0.0,30.33,NNW,337,3.0,13.0,47,0.00,,,0.00,Rainwise IP-100,2013-02-07 00:25:00,
2013-02-06 19:30:00,12.0,0.0,30.33,North,360,7.0,13.0,47,0.00,,,0.00,Rainwise IP-100,2013-02-07 00:30:00,
2013-02-06 19:35:00,12.0,0.0,30.33,NW,315,7.0,12.0,47,0.00,,,0.00,Rainwise IP-100,2013-02-07 00:35:00,
2013-02-06 19:40:00,11.0,-6.0,30.35,ENE,67,4.0,11.0,47,0.00,,,0.00,Rainwise IP-100,2013-02-07 00:40:00,
2013-02-06 19:45:00,11.0,-6.0,30.35,North,360,9.0,12.0,48,0.00,,,0.00,Rainwise IP-100,2013-02-07 00:45:00,
2013-02-06 19:50:00,11.0,-6.0,30.35,North,360,6.0,11.0,47,0.00,,,0.00,Rainwise IP-100,2013-02-07 00:50:00,
2013-02-06 19:55:00,11.0,-6.0,30.35,North,360,7.0,11.0,46,0.00,,,0.00,Rainwise IP-100,2013-02-07 00:55:00,
2013-02-06 20:00:00,11.0,-6.0,30.36,North,360,6.0,16.0,47,0.00,,,0.00,Rainwise IP-100,2013-02-07 01:00:00,
2013-02-06 20:05:00,11.0,-6.0,30.36,North,360,7.0,11.0,45,0.00,,,0.00,Rainwise IP-100,2013-02-07 01:05:00,
2013-02-06 20:10:00,11.0,-6.0,30.36,NW,315,7.0,9.0,46,0.00,,,0.00,Rainwise IP-100,2013-02-07 01:10:00,
2013-02-06 20:15:00,10.0,-6.0,30.36,NE,45,3.0,9.0,48,0.00,,,0.00,Rainwise IP-100,2013-02-07 01:15:00,
2013-02-06 20:20:00,10.0,-6.0,30.37,East,90,6.0,12.0,44,0.00,,,0.00,Rainwise IP-100,2013-02-07 01:20:00,
2013-02-06 20:25:00,10.0,-6.0,30.37,NNE,22,4.0,8.0,46,0.00,,,0.00,Rainwise IP-100,2013-02-07 01:25:00,
2013-02-06 20:30:00,10.0,-6.0,30.37,NNE,22,6.0,7.0,47,0.00,,,0.00,Rainwise IP-100,2013-02-07 01:30:00,
2013-02-06 20:35:00,10.0,-6.0,30.37,NE,45,6.0,9.0,47,0.00,,,0.00,Rainwise IP-100,2013-02-07 01:35:00,
2013-02-06 20:40:00,10.0,-6.0,30.37,North,360,6.0,8.0,49,0.00,,,0.00,Rainwise IP-100,2013-02-07 01:40:00,
2013-02-06 20:45:00,10.0,-6.0,30.37,North,360,8.0,13.0,48,0.00,,,0.00,Rainwise IP-100,2013-02-07 01:45:00,
2013-02-06 20:50:00,10.0,-6.0,30.38,NNE,22,7.0,15.0,48,0.00,,,0.00,Rainwise IP-100,2013-02-07 01:50:00,
2013-02-06 20:55:00,9.0,-6.0,30.38,North,360,9.0,12.0,48,0.00,,,0.00,Rainwise IP-100,2013-02-07 01:55:00,
2013-02-06 21:00:00,10.0,-6.0,30.39,North,360,9.0,12.0,47,0.00,,,0.00,Rainwise IP-100,2013-02-07 02:00:00,
2013-02-06 21:05:00,9.0,-6.0,30.39,NNE,22,7.0,13.0,47,0.00,,,0.00,Rainwise IP-100,2013-02-07 02:05:00,
2013-02-06 21:10:00,9.0,-6.0,30.40,NNE,22,8.0,16.0,47,0.00,,,0.00,Rainwise IP-100,2013-02-07 02:10:00,
2013-02-06 21:15:00,9.0,-6.0,30.40,NNW,337,9.0,15.0,47,0.00,,,0.00,Rainwise IP-100,2013-02-07 02:15:00,
2013-02-06 21:20:00,9.0,-6.0,30.40,NNW,337,7.0,20.0,47,0.00,,,0.00,Rainwise IP-100,2013-02-07 02:20:00,
2013-02-06 21:25:00,9.0,-6.0,30.40,North,360,6.0,16.0,48,0.00,,,0.00,Rainwise IP-100,2013-02-07 02:25:00,
2013-02-06 21:30:00,9.0,-6.0,30.40,NW,315,11.0,11.0,49,0.00,,,0.00,Rainwise IP-100,2013-02-07 02:30:00,
2013-02-06 21:35:00,9.0,-6.0,30.40,NE,45,1.0,12.0,48,0.00,,,0.00,Rainwise IP-100,2013-02-07 02:35:00,
2013-02-06 21:40:00,9.0,-6.0,30.41,NNE,22,0.0,6.0,49,0.00,,,0.00,Rainwise IP-100,2013-02-07 02:40:00,
2013-02-06 21:45:00,8.0,-6.0,30.41,NNW,337,4.0,17.0,48,0.00,,,0.00,Rainwise IP-100,2013-02-07 02:45:00,
2013-02-06 21:50:00,8.0,-6.0,30.41,SE,135,3.0,9.0,50,0.00,,,0.00,Rainwise IP-100,2013-02-07 02:50:00,
2013-02-06 21:55:00,8.0,-6.0,30.41,NNW,337,7.0,9.0,49,0.00,,,0.00,Rainwise IP-100,2013-02-07 02:55:00,
2013-02-06 22:00:00,8.0,-6.0,30.41,NW,315,4.0,8.0,49,0.00,,,0.00,Rainwise IP-100,2013-02-07 03:00:00,
2013-02-06 22:05:00,8.0,-6.0,30.41,NW,315,2.0,4.0,50,0.00,,,0.00,Rainwise IP-100,2013-02-07 03:05:00,
2013-02-06 22:10:00,8.0,-6.0,30.41,SSE,157,4.0,10.0,49,0.00,,,0.00,Rainwise IP-100,2013-02-07 03:10:00,
2013-02-06 22:15:00,8.0,-6.0,30.41,North,360,7.0,10.0,50,0.00,,,0.00,Rainwise IP-100,2013-02-07 03:15:00,
2013-02-06 22:20:00,8.0,-6.0,30.41,NW,315,12.0,12.0,49,0.00,,,0.00,Rainwise IP-100,2013-02-07 03:20:00,
2013-02-06 22:25:00,8.0,-6.0,30.41,West,270,6.0,12.0,50,0.00,,,0.00,Rainwise IP-100,2013-02-07 03:25:00,
2013-02-06 22:30:00,8.0,-6.0,30.42,North,360,6.0,14.0,50,0.00,,,0.00,Rainwise IP-100,2013-02-07 03:30:00,
2013-02-06 22:35:00,7.0,-6.0,30.42,NW,315,9.0,13.0,50,0.00,,,0.00,Rainwise IP-100,2013-02-07 03:35:00,
2013-02-06 22:40:00,7.0,-6.0,30.43,North,360,3.0,9.0,51,0.00,,,0.00,Rainwise IP-100,2013-02-07 03:40:00,
2013-02-06 22:45:00,7.0,-6.0,30.43,WNW,292,4.0,7.0,51,0.00,,,0.00,Rainwise IP-100,2013-02-07 03:45:00,
2013-02-06 22:50:00,7.0,-6.0,30.43,West,270,0.0,6.0,53,0.00,,,0.00,Rainwise IP-100,2013-02-07 03:50:00,
2013-02-06 22:55:00,6.0,-6.0,30.43,West,270,0.0,2.0,53,0.00,,,0.00,Rainwise IP-100,2013-02-07 03:55:00,
2013-02-06 23:00:00,6.0,-6.0,30.43,WSW,247,2.0,5.0,55,0.00,,,0.00,Rainwise IP-100,2013-02-07 04:00:00,
2013-02-06 23:05:00,6.0,-6.0,30.43,NW,315,6.0,8.0,52,0.00,,,0.00,Rainwise IP-100,2013-02-07 04:05:00,
2013-02-06 23:10:00,6.0,-6.0,30.43,WNW,292,6.0,10.0,52,0.00,,,0.00,Rainwise IP-100,2013-02-07 04:10:00,
2013-02-06 23:15:00,6.0,-6.0,30.43,North,360,4.0,10.0,52,0.00,,,0.00,Rainwise IP-100,2013-02-07 04:15:00,
2013-02-06 23:20:00,6.0,-6.0,30.43,NNW,337,4.0,10.0,52,0.00,,,0.00,Rainwise IP-100,2013-02-07 04:20:00,
2013-02-06 23:25:00,6.0,-6.0,30.43,NNW,337,0.0,9.0,53,0.00,,,0.00,Rainwise IP-100,2013-02-07 04:25:00,
2013-02-06 23:30:00,6.0,-6.0,30.43,North,360,2.0,6.0,54,0.00,,,0.00,Rainwise IP-100,2013-02-07 04:30:00,
2013-02-06 23:35:00,7.0,-6.0,30.43,NE,45,6.0,13.0,52,0.00,,,0.00,Rainwise IP-100,2013-02-07 04:35:00,
2013-02-06 23:40:00,6.0,-6.0,30.43,SSW,202,5.0,12.0,54,0.00,,,0.00,Rainwise IP-100,2013-02-07 04:40:00,
2013-02-06 23:45:00,6.0,-6.0,30.43,WNW,292,7.0,7.0,55,0.00,,,0.00,Rainwise IP-100,2013-02-07 04:45:00,
2013-02-06 23:50:00,5.0,-6.0,30.45,North,360,0.0,7.0,57,0.00,,,0.00,Rainwise IP-100,2013-02-07 04:50:00,
2013-02-06 23:55:00,5.0,-6.0,30.45,NNE,22,4.0,9.0,57,0.00,,,0.00,Rainwise IP-100,2013-02-07 04:55:00,